Terminal Aerodrome Forecast
Issued by NWS Lubbock, TX

Home | Current Version | Previous Version | Text Only | Print | Product List | Glossary On
Versions: 1 2 3 4 5 6 7 8 9 10 11 12 13 14 15
000
FTUS44 KLUB 280500
TAFLBB
TAF
KLBB 280520Z 2806/2906 13008KT P6SM BKN100
      TEMPO 2806/2810 -TSRA SCT080CB
     FM281200 20009KT P6SM BKN100 PROB30 2820/2824 TSRA BKN060CB=

USA.gov is the U.S. government's official web portal to all federal, state and local government web resources and services.